OBJECT A, 60203

Orbit data source: Space-Track

You're viewing an Uncataloged Satellite

Recently launched and/or uncataloged satellites may have evolving metadata. Metadata may include but not limited to: Owner, Maufacturer, Bus, Motor, and Mission.

OBJECT A, 60203 is a satellite owned by UWash (US) in SSO that was launched on Thu, 04 Jul 2024 UTC via an FIREFLY ALPHA launch vehicle from the Air Force Western Test Range (AFWTR). Unknown objects in Earth's orbit typically refer to objects detected orbiting the Earth but have not yet been identified or cataloged. These objects could be anything from previously untracked satellites, spent rocket stages, debris from satellite collisions, or even natural meteoroids temporarily captured by Earth's gravity.

Loading next visibility...
Identifier
60203, 2024-125A
Orbit
SSO
Last TLE update
10 hours ago
Origin
Flag of USUWA (US)
Manufacturer
UWash
Mission
Operational spacecraft
Bus & Motor
CUBESAT 2U, Unknown motor
Mass
2 kg wet, 2 kg dry
Launch date (UTC)
2024-07-04 (1 year ago)
Launch vehicle
FIREFLY ALPHA
Launch site
Air Force Western Test Range (AFWTR)
Object type
Unknown
Shape & HBR
Unknown
Radar Cross Section
Small (<0.1 m²)

Expand to show TLE details & history

TLE from 10 hours ago
0 OBJECT A
1 60203U 24125A   25186.53649916  .00018251  00000-0  49273-3 0  9995
2 60203  97.2764  38.0778 0019916  46.2841 314.0049 15.37614874 55953
Epoch: 2025-07-05T12:52Z
TLE epoch observation values (Epoch: 2025-07-05T12:52:33.527Z)
Latitude
-0.00006°
Longitude
-78.83502°
Altitude
446.843 km
Speed
7.649 km/s
True Right ascension
02h 32m 18s
True Declination
0° 00' 00"
Sunlit
Object was in daylight at epoch
Visualization orbit readout
Latitude
17.83743°
Longitude
103.9225°
Altitude
461.858 km
Speed
7.634 km/s
Apparent Right ascension
17h 50m 27s
Apparent Declination
-19° 18' 53"
Sunlit
Object is in daylight
Visualization observer readout
Local Sidereal Time
10:53:08
Azimuth
96.478° ESE
Elevation
-23.039°
Doppler factor
1
Orbital elements
Apogee altitude
463.701 km
Perigee altitude
436.502 km
Semi-major axis
6,828.238 km
Eccentricity
0.00199
Inclination
97.2764°
RAAN
38.0778°
Arg. of periapsis
46.2841°
True anomaly
Unknown
Mean anomaly
314.0049°
Eccentric anomaly
Unknown
Mean motion
3.84663 °/min
Orbital period
93.59 mins
BSTAR
0.00049273
Loading maneuver chart data...
Loading SW <> Apogee altitude chart data...
Loading historical data...
Loading historical data...
Loading historical data...
Loading historical data...
Loading historical data...
Loading historical data...
Loading historical data...

OBJECT A Visibility forecast

Observer location: undefined°, undefined°

Span
Click to sort rows by Start time (UTC) header in descending order
Start Az.
Max El. time (UTC)
Max El. Az.
Max El.
End time (UTC)
End Az.
5 mins2025-07-06 03:29:52.464Z340.622° N2025-07-06 03:31:52.464Z284.893° WNW28.261°2025-07-06 03:34:52.464Z222.279° SW
4 mins2025-07-06 14:00:52.464Z147.853° SSE2025-07-06 14:02:52.464Z39.024° NE39.352°2025-07-06 14:04:52.464Z358.592° N
|